map of ADZ home
Great Circle Mapper logo
ADZ - Airport
Location
City:  San Andrés Island, Colombia
Name:Gustavo Rojas Pinilla International Airport
Old (Alt.):Sesquicentenario
ICAO / IATA:SKSP / ADZ

Details
Type:Airport (Aerodrome, Airfield)
Use:International (customs port of entry)
Latitude:12°35'01"N (12.583683)
Longitude:81°42'39"W (-81.710918)
Elevation:19 ft (6 m)
Runways:1
Longest:7808 × 148 ft (2380 × 45 m), paved

Time
Time Zone:UTC-5
Local Time:

Weather
METAR:SKSP 011300Z 08010KT 9999 FEW016 BKN080 29/26 A2983
TAF:SKSP 302200Z 010024 VRB02KT 9999 FEW017 OVC200
TEMPO 0100/0105 DZ SCT015TCU
TEMPO 0110/0113 -DZ FEW017
TEMPO 0119/0123 09007KT PROB30
TEMPO 0118/0122 DZ SCT017TCU TX31/0118Z TN26/0110Z

Related Locations
Nearby:
Farthest:CCK: 12346 mi / 19868 km
West Island (Pulau Panjang) [Cocos (Keeling) Islands], CC

Find:

   beyond  
but within

Other Information
Maps:
NOTAMs:
Links:
Sources:

  
flag of Colombia   

Sectional Chart

Flight Planning
at skyvector.com

Satellite Image

Google Maps Satellite View

 

Copyright © 2004-2014 Karl L. Swartz. All rights reserved.
The Great Circle Mapper name and logo are trademarks of the Great Circle Mapper.
All other trademarks mentioned herein belong to their respective owners.
Please see credits for attibutions and further copyright information.

  Follow gcmap on Facebook Follow gcmap on Twitter

hCard Microformat

Geo Microformat